Monticello, KY

1:42 AM EST on December 07, 2019 (GMT -0500)
Wayne County

Weather History for KEKQ - September, 2019

Change the Weather History Date:

Saturday, September 21, 2019

  Actual Average Record
Temperature  
Mean Temperature 73 °F -  
Max Temperature 89 °F 79 °F 91 °F (1984)
Min Temperature 57 °F 55 °F 36 °F (1956)
Cooling Degree Days 8    
Growing Degree Days 23 (Base 50)    
Moisture  
Dew Point 58 °F    
Average Humidity 70    
Maximum Humidity 100    
Minimum Humidity 36    
Precipitation  
Precipitation 0.00 in - - ()
Sea Level Pressure  
Sea Level Pressure 30.24 in    
Wind  
Wind Speed 7 mph (WNW)    
Max Wind Speed 13 mph    
Max Gust Speed 18 mph    
Visibility 10 miles    
Events      
Averages and records for this station are not official NWS values.
T = Trace of Precipitation, MM = Missing Value Source: NWS Daily Summary

Daily Weather History Graph

Daily Weather History Graph

Search for Another Location

Airport or City:

Astronomy

Sep. 21, 2019 Rise Set
Actual Time 6:26 AM CDT 6:38 PM CDT
Civil Twilight 6:00 AM CDT 7:04 PM CDT
Nautical Twilight 5:30 AM CDT 7:34 PM CDT
Astronomical Twilight 4:59 AM CDT 8:04 PM CDT
Moon 11:24 PM CDT (9/21) 1:22 PM CDT (9/21)
Length of Visible Light 13h 03m
Length of Day
12h 11m
Waning Gibbous, 54% of the Moon is Illuminated
Sep 21
Waning Gibbous
Sep 21
Last Quarter
Sep 28
New
Oct 5
First Quarter
Oct 13
Full

Hourly Weather History & Observations

Time (CDT) Temp. Heat Index Dew Point Humidity Pressure Visibility Wind Dir Wind Speed Gust Speed Precip Events Conditions
12:56 AM 59.0 °F - 57.9 °F 96% 30.25 in 10.0 mi North 9.2 mph - N/A   Clear
1:56 AM 59.0 °F - 59.0 °F 100% 30.25 in 10.0 mi West 9.2 mph - N/A   Clear
2:56 AM 59.0 °F - 57.9 °F 96% 30.25 in 10.0 mi West 5.8 mph - N/A   Clear
3:56 AM 57.9 °F - 57.9 °F 100% 30.26 in 10.0 mi West 10.4 mph - N/A   Clear
4:56 AM 57.0 °F - 57.0 °F 100% 30.27 in 10.0 mi West 3.5 mph - N/A   Clear
5:56 AM 57.0 °F - 55.9 °F 96% 30.29 in 10.0 mi NNE 9.2 mph - N/A   Clear
6:56 AM 57.0 °F - 55.9 °F 96% - 10.0 mi Calm Calm - N/A   Clear
7:56 AM 66.9 °F - 62.1 °F 84% 30.32 in 10.0 mi NW 9.2 mph - N/A   Clear
8:56 AM 75.9 °F - 60.1 °F 58% 30.32 in 10.0 mi North - - N/A   Clear
9:56 AM 81.0 °F 81.1 °F 57.9 °F 45% 30.31 in 10.0 mi WSW 12.7 mph 18.4 mph N/A   Clear
10:56 AM 82.9 °F 82.4 °F 57.0 °F 41% 30.30 in 10.0 mi South 4.6 mph - N/A   Clear
11:56 AM 84.9 °F 83.9 °F 57.0 °F 38% 30.28 in 10.0 mi Variable 5.8 mph - N/A   Clear
12:56 PM 88.0 °F 87.1 °F 59.0 °F 37% 30.25 in 10.0 mi West 10.4 mph 16.1 mph N/A   Clear
1:56 PM 88.0 °F 87.1 °F 59.0 °F 37% 30.23 in 10.0 mi NNE 8.1 mph 16.1 mph N/A   Scattered Clouds
2:56 PM 89.1 °F 88.2 °F 59.0 °F 36% 30.19 in 10.0 mi Variable 6.9 mph 16.1 mph N/A   Mostly Cloudy
3:56 PM 86.0 °F 85.4 °F 59.0 °F 40% 30.19 in 10.0 mi Variable 6.9 mph - N/A   Mostly Cloudy
4:56 PM 87.1 °F 86.5 °F 59.0 °F 39% 30.17 in 10.0 mi North - - N/A   Clear
5:56 PM 84.9 °F 84.2 °F 57.9 °F 40% 30.18 in 10.0 mi ENE 8.1 mph - N/A   Clear
6:56 PM 71.1 °F - 59.0 °F 66% 30.19 in 10.0 mi West 9.2 mph - N/A   Clear
7:56 PM 66.0 °F - 59.0 °F 78% 30.19 in 10.0 mi Calm Calm - N/A   Clear
8:56 PM 63.0 °F - 57.9 °F 84% - 10.0 mi Variable 6.9 mph - N/A   Clear
9:56 PM 64.9 °F - 60.1 °F 84% 30.20 in 10.0 mi Variable 5.8 mph - N/A   Clear
10:56 PM 61.0 °F - 57.9 °F 90% 30.20 in 10.0 mi North - - N/A   Clear
11:56 PM 59.0 °F - 57.0 °F 93% 30.19 in 10.0 mi Calm Calm - N/A   Clear